TimeEDT,TemperatureF,Dew PointF,Humidity,Sea Level PressureIn,VisibilityMPH,Wind Direction,Wind SpeedMPH,Gust SpeedMPH,PrecipitationIn,Events,Conditions,WindDirDegrees,DateUTC
12:14 AM,42.8,37.4,81,30.13,10.0,Calm,Calm,-,N/A,,Overcast,0,2012-10-07 04:14:00
12:35 AM,42.8,37.4,81,30.13,10.0,Calm,Calm,-,N/A,,Overcast,0,2012-10-07 04:35:00
12:55 AM,42.8,37.4,81,30.12,10.0,Calm,Calm,-,N/A,,Overcast,0,2012-10-07 04:55:00
1:14 AM,42.8,37.4,81,30.12,10.0,West,3.5,-,N/A,,Overcast,260,2012-10-07 05:14:00
1:35 AM,42.8,37.4,81,30.12,10.0,West,3.5,-,N/A,,Overcast,260,2012-10-07 05:35:00
1:55 AM,42.8,37.4,81,30.12,10.0,West,4.6,-,N/A,,Overcast,270,2012-10-07 05:55:00
2:14 AM,42.8,37.4,81,30.12,10.0,WSW,4.6,-,N/A,,Drizzle,250,2012-10-07 06:14:00
2:35 AM,41.0,37.4,87,30.12,7.0,WSW,3.5,-,N/A,Rain,Rain,240,2012-10-07 06:35:00
3:14 AM,41.0,37.4,87,30.11,10.0,WSW,3.5,-,N/A,,Overcast,250,2012-10-07 07:14:00
3:34 AM,41.0,37.4,87,30.10,10.0,SW,3.5,-,N/A,,Overcast,230,2012-10-07 07:34:00
3:55 AM,41.0,37.4,87,30.09,10.0,SW,3.5,-,N/A,,Overcast,230,2012-10-07 07:55:00
4:15 AM,41.0,37.4,87,30.09,10.0,Calm,Calm,-,N/A,,Overcast,0,2012-10-07 08:15:00
4:34 AM,41.0,37.4,87,30.09,10.0,Calm,Calm,-,N/A,,Overcast,0,2012-10-07 08:34:00
4:55 AM,41.0,37.4,87,30.09,10.0,SW,3.5,-,N/A,,Overcast,220,2012-10-07 08:55:00
5:15 AM,41.0,37.4,87,30.09,10.0,SW,4.6,-,N/A,,Overcast,230,2012-10-07 09:15:00
5:34 AM,41.0,37.4,87,30.09,10.0,SW,3.5,-,N/A,,Overcast,230,2012-10-07 09:34:00
5:55 AM,41.0,37.4,87,30.08,10.0,Calm,Calm,-,N/A,,Overcast,0,2012-10-07 09:55:00
6:15 AM,41.0,37.4,87,30.08,10.0,WSW,4.6,-,N/A,,Overcast,240,2012-10-07 10:15:00
6:34 AM,41.0,37.4,87,30.08,10.0,SW,3.5,-,N/A,,Overcast,220,2012-10-07 10:34:00
6:55 AM,41.0,37.4,87,30.09,10.0,Calm,Calm,-,N/A,,Overcast,0,2012-10-07 10:55:00
7:15 AM,41.0,37.4,87,30.08,10.0,Calm,Calm,-,N/A,,Overcast,0,2012-10-07 11:15:00
7:34 AM,41.0,37.4,87,30.08,10.0,Calm,Calm,-,N/A,,Overcast,0,2012-10-07 11:34:00
7:55 AM,41.0,37.4,87,30.08,10.0,Calm,Calm,-,N/A,,Overcast,0,2012-10-07 11:55:00
8:15 AM,41.0,37.4,87,30.08,10.0,Calm,Calm,-,N/A,,Overcast,0,2012-10-07 12:15:00
8:35 AM,41.0,37.4,87,30.09,10.0,Calm,Calm,-,N/A,,Overcast,0,2012-10-07 12:35:00
8:55 AM,41.0,39.2,93,30.09,10.0,West,3.5,-,N/A,,Overcast,260,2012-10-07 12:55:00
9:14 AM,41.0,37.4,87,30.10,7.0,West,3.5,-,N/A,Rain,Light Rain,270,2012-10-07 13:14:00
9:35 AM,41.0,39.2,93,30.10,5.0,Calm,Calm,-,N/A,Rain,Rain,0,2012-10-07 13:35:00
9:54 AM,41.0,39.2,93,30.10,7.0,Calm,Calm,-,N/A,,Light Drizzle,0,2012-10-07 13:54:00
10:15 AM,42.8,39.2,87,30.10,7.0,Calm,Calm,-,N/A,,Overcast,0,2012-10-07 14:15:00
10:35 AM,42.8,39.2,87,30.10,7.0,West,3.5,-,N/A,,Overcast,280,2012-10-07 14:35:00
10:54 AM,42.8,39.2,87,30.10,10.0,Calm,Calm,-,N/A,,Overcast,0,2012-10-07 14:54:00
11:15 AM,42.8,39.2,87,30.11,7.0,Calm,Calm,-,N/A,Rain,Light Rain,0,2012-10-07 15:15:00
11:35 AM,42.8,39.2,87,30.11,7.0,Calm,Calm,-,N/A,Rain,Light Rain,0,2012-10-07 15:35:00
11:54 AM,42.8,39.2,87,30.11,10.0,West,3.5,-,N/A,Rain,Light Rain,260,2012-10-07 15:54:00
12:15 PM,42.8,39.2,87,30.11,10.0,WSW,8.1,-,N/A,,Overcast,250,2012-10-07 16:15:00
12:35 PM,42.8,39.2,87,30.11,10.0,WSW,10.4,-,N/A,,Overcast,240,2012-10-07 16:35:00
12:54 PM,44.6,41.0,87,30.11,10.0,WSW,9.2,-,N/A,,Overcast,240,2012-10-07 16:54:00
1:15 PM,44.6,41.0,87,30.11,10.0,WSW,10.4,-,N/A,,Mostly Cloudy,240,2012-10-07 17:15:00
1:34 PM,44.6,39.2,81,30.11,10.0,West,10.4,-,N/A,Rain,Light Rain,270,2012-10-07 17:34:00
1:55 PM,41.0,39.2,93,30.11,4.0,WNW,4.6,-,N/A,Rain,Light Rain,300,2012-10-07 17:55:00
2:15 PM,42.8,39.2,87,30.10,5.0,WNW,5.8,-,N/A,Rain,Light Rain,300,2012-10-07 18:15:00
2:34 PM,42.8,39.2,87,30.10,7.0,WNW,8.1,-,N/A,,Drizzle,300,2012-10-07 18:34:00
2:55 PM,42.8,39.2,87,30.10,7.0,NW,5.8,-,N/A,Rain,Rain,320,2012-10-07 18:55:00
3:14 PM,42.8,39.2,87,30.11,10.0,WNW,3.5,-,N/A,,Light Drizzle,300,2012-10-07 19:14:00
3:35 PM,42.8,39.2,87,30.10,10.0,WNW,3.5,-,N/A,,Overcast,290,2012-10-07 19:35:00
3:55 PM,44.6,39.2,81,30.10,10.0,NW,4.6,-,N/A,,Mostly Cloudy,310,2012-10-07 19:55:00
4:14 PM,44.6,39.2,81,30.10,10.0,NW,3.5,-,N/A,,Overcast,320,2012-10-07 20:14:00
4:35 PM,44.6,39.2,81,30.10,10.0,North,3.5,-,N/A,,Overcast,350,2012-10-07 20:35:00
4:55 PM,44.6,39.2,81,30.10,10.0,NNW,5.8,-,N/A,,Overcast,330,2012-10-07 20:55:00
5:14 PM,42.8,37.4,81,30.10,10.0,NNW,10.4,-,N/A,,Overcast,330,2012-10-07 21:14:00
5:35 PM,42.8,37.4,81,30.11,10.0,NW,6.9,-,N/A,,Overcast,310,2012-10-07 21:35:00
5:55 PM,44.6,37.4,76,30.11,10.0,NW,5.8,-,N/A,,Overcast,320,2012-10-07 21:55:00
6:15 PM,44.6,35.6,71,30.11,10.0,NW,5.8,-,N/A,,Overcast,310,2012-10-07 22:15:00
6:34 PM,44.6,35.6,71,30.12,10.0,WNW,3.5,-,N/A,,Overcast,300,2012-10-07 22:34:00
6:55 PM,44.6,35.6,71,30.12,10.0,West,3.5,-,N/A,,Overcast,270,2012-10-07 22:55:00
7:15 PM,42.8,35.6,76,30.12,10.0,WNW,4.6,-,N/A,,Overcast,300,2012-10-07 23:15:00
7:34 PM,42.8,33.8,70,30.12,10.0,Calm,Calm,-,N/A,,Overcast,0,2012-10-07 23:34:00
7:55 PM,42.8,33.8,70,30.13,10.0,Calm,Calm,-,N/A,,Overcast,0,2012-10-07 23:55:00
8:15 PM,41.0,33.8,76,30.13,10.0,Calm,Calm,-,N/A,,Overcast,0,2012-10-08 00:15:00
8:55 PM,37.4,35.6,93,30.13,10.0,Calm,Calm,-,N/A,,Scattered Clouds,0,2012-10-08 00:55:00
9:14 PM,37.4,33.8,87,30.15,10.0,Calm,Calm,-,N/A,,Clear,0,2012-10-08 01:14:00
9:35 PM,35.6,33.8,93,30.15,10.0,Calm,Calm,-,N/A,,Clear,0,2012-10-08 01:35:00
9:55 PM,35.6,33.8,93,30.16,10.0,Calm,Calm,-,N/A,,Scattered Clouds,0,2012-10-08 01:55:00
10:14 PM,35.6,33.8,93,30.16,10.0,Calm,Calm,-,N/A,,Mostly Cloudy,0,2012-10-08 02:14:00
10:35 PM,37.4,33.8,87,30.15,10.0,Calm,Calm,-,N/A,,Overcast,0,2012-10-08 02:35:00
10:55 PM,37.4,33.8,87,30.15,10.0,Calm,Calm,-,N/A,,Overcast,0,2012-10-08 02:55:00
11:15 PM,35.6,33.8,93,30.15,10.0,Calm,Calm,-,N/A,,Overcast,0,2012-10-08 03:15:00
11:35 PM,35.6,33.8,93,30.15,10.0,Calm,Calm,-,N/A,,Mostly Cloudy,0,2012-10-08 03:35:00
11:55 PM,35.6,33.8,93,30.15,10.0,Calm,Calm,-,N/A,,Scattered Clouds,0,2012-10-08 03:55:00